Tracking 30264 objects as of 15-Feb-2025
HD Live streaming from Space Station
objects crossing your sky now

STARLINK-4282

Track STARLINK-4282 now!
10-day predictions
STARLINK-4282 is classified as:


NORAD ID: 53019
Int'l Code: 2022-076AK
Perigee: 545.9 km
Apogee: 547.9 km
Inclination: 53.2 °
Period: 95.4 minutes
Semi major axis: 6917 km
RCS: Unknown
Launch date: July 7, 2022
Source: United States (US)
Launch site: AIR FORCE EASTERN TEST RANGE (AFETR)
Your satellite tracking list
Your tracking list is empty




NASA's NSSDC Master Catalog

Two Line Element Set (TLE):
1 53019U 22076AK  25046.30364755 -.00000647  00000-0 -22550-4 0  9992
2 53019  53.2191  23.1632 0001467  94.9679 265.1480 15.08841796144509
Source of the keplerian elements: AFSPC